Location: Anciles
(42.5833°N, 0.5167°E)
Time: 21:43:14
(UTC+00:00)

Cosmos 1867 - Pass Details

Date: 10 December 2019
Orbit: 777 x 799 km, 65.0° (Epoch: 28 January)

Event Time Altitude Azimuth Distance (km) Brightness Sun altitude
Rises 18:02:11 0° 331° (NNW) 3,313 7.0 -17.3°
Reaches altitude 10° 18:04:49 10° 340° (NNW) 2,379 6.1 -17.8°
Maximum altitude 18:09:51 36° 47° (NE) 1,243 4.1 -18.7°
Enters shadow 18:10:41 34° 67° (ENE) 1,286 4.1 -18.8°
